TimeEDT,TemperatureF,Dew PointF,Humidity,Sea Level PressureIn,VisibilityMPH,Wind Direction,Wind SpeedMPH,Gust SpeedMPH,PrecipitationIn,Events,Conditions,WindDirDegrees,DateUTC
12:15 AM,60.1,55.2,84,30.23,10.0,Calm,Calm,-,N/A,,Mostly Cloudy,0,2013-09-16 04:15:00
12:35 AM,60.3,54.5,81,30.23,10.0,Calm,Calm,-,N/A,,Scattered Clouds,0,2013-09-16 04:35:00
12:55 AM,59.9,54.7,83,30.23,10.0,WSW,3.5,-,N/A,,Clear,240,2013-09-16 04:55:00
1:15 AM,59.9,54.5,82,30.23,10.0,Calm,Calm,-,N/A,,Clear,0,2013-09-16 05:15:00
1:35 AM,60.1,54.7,82,30.23,10.0,Calm,Calm,-,N/A,,Scattered Clouds,0,2013-09-16 05:35:00
1:55 AM,60.1,54.0,80,30.23,10.0,Calm,Calm,-,N/A,,Mostly Cloudy,0,2013-09-16 05:55:00
2:15 AM,58.6,55.2,88,30.24,10.0,Calm,Calm,-,N/A,,Scattered Clouds,0,2013-09-16 06:15:00
2:35 AM,58.3,55.2,90,30.23,10.0,Calm,Calm,-,N/A,,Clear,0,2013-09-16 06:35:00
2:55 AM,57.2,54.7,91,30.23,7.0,Calm,Calm,-,N/A,,Scattered Clouds,0,2013-09-16 06:55:00
3:15 AM,57.2,54.9,92,30.22,10.0,Calm,Calm,-,N/A,,Scattered Clouds,0,2013-09-16 07:15:00
3:35 AM,57.2,54.9,92,30.22,10.0,Calm,Calm,-,N/A,,Clear,0,2013-09-16 07:35:00
3:55 AM,56.8,54.0,90,30.21,10.0,Calm,Calm,-,N/A,,Clear,0,2013-09-16 07:55:00
4:15 AM,56.7,54.3,92,30.21,7.0,Calm,Calm,-,N/A,,Clear,0,2013-09-16 08:15:00
4:35 AM,57.7,54.0,87,30.21,10.0,Calm,Calm,-,N/A,,Clear,0,2013-09-16 08:35:00
4:55 AM,60.1,51.4,73,30.21,10.0,WNW,3.5,-,N/A,,Clear,290,2013-09-16 08:55:00
5:15 AM,59.4,52.9,79,30.21,7.0,NW,4.6,-,N/A,,Clear,320,2013-09-16 09:15:00
5:35 AM,60.4,51.1,71,30.22,10.0,NW,4.6,-,N/A,,Scattered Clouds,310,2013-09-16 09:35:00
5:55 AM,61.2,51.3,70,30.21,10.0,WNW,5.8,-,N/A,,Scattered Clouds,300,2013-09-16 09:55:00
6:15 AM,61.7,51.8,70,30.21,10.0,WNW,10.4,-,N/A,,Clear,290,2013-09-16 10:15:00
6:35 AM,62.2,51.8,69,30.21,10.0,West,5.8,-,N/A,,Clear,270,2013-09-16 10:35:00
6:55 AM,61.9,52.0,70,30.21,10.0,West,10.4,-,N/A,,Clear,270,2013-09-16 10:55:00
7:15 AM,62.2,52.7,71,30.22,10.0,West,10.4,-,N/A,,Clear,280,2013-09-16 11:15:00
7:35 AM,63.0,53.1,70,30.22,10.0,West,12.7,19.6,N/A,,Scattered Clouds,280,2013-09-16 11:35:00
7:55 AM,63.0,53.2,71,30.22,10.0,WNW,12.7,18.4,N/A,,Scattered Clouds,290,2013-09-16 11:55:00
8:15 AM,63.1,53.6,71,30.22,10.0,WNW,9.2,-,N/A,,Clear,300,2013-09-16 12:15:00
8:35 AM,63.7,53.8,70,30.22,10.0,WNW,9.2,16.1,N/A,,Clear,290,2013-09-16 12:35:00
8:55 AM,63.5,53.8,71,30.23,10.0,West,16.1,19.6,N/A,,Clear,280,2013-09-16 12:55:00
9:15 AM,65.3,54.3,68,30.23,10.0,West,11.5,18.4,N/A,,Clear,280,2013-09-16 13:15:00
9:35 AM,66.2,54.5,66,30.24,10.0,West,5.8,-,N/A,,Scattered Clouds,280,2013-09-16 13:35:00
9:55 AM,66.2,54.9,67,30.24,10.0,WNW,11.5,16.1,N/A,,Mostly Cloudy,300,2013-09-16 13:55:00
10:15 AM,66.6,54.0,64,30.24,10.0,WNW,9.2,-,N/A,,Mostly Cloudy,300,2013-09-16 14:15:00
10:35 AM,67.1,53.6,62,30.24,10.0,NW,5.8,18.4,N/A,,Scattered Clouds,310,2013-09-16 14:35:00
10:55 AM,68.0,53.6,60,30.24,10.0,West,10.4,-,N/A,,Mostly Cloudy,280,2013-09-16 14:55:00
11:15 AM,67.1,53.2,61,30.24,10.0,West,8.1,-,N/A,,Mostly Cloudy,280,2013-09-16 15:15:00
11:35 AM,66.7,54.0,63,30.25,10.0,West,6.9,-,N/A,,Overcast,280,2013-09-16 15:35:00
11:55 AM,67.1,53.4,61,30.24,10.0,WNW,6.9,-,N/A,,Mostly Cloudy,300,2013-09-16 15:55:00
12:15 PM,67.1,52.3,59,30.24,10.0,NW,6.9,-,N/A,,Mostly Cloudy,320,2013-09-16 16:15:00
12:35 PM,68.5,51.4,54,30.24,10.0,West,5.8,-,N/A,,Mostly Cloudy,280,2013-09-16 16:35:00
12:55 PM,70.2,51.4,51,30.24,10.0,WNW,6.9,-,N/A,,Mostly Cloudy,290,2013-09-16 16:55:00
1:15 PM,69.6,51.6,53,30.24,10.0,West,5.8,-,N/A,,Overcast,280,2013-09-16 17:15:00
1:35 PM,68.9,52.7,56,30.24,10.0,NNW,5.8,-,N/A,,Mostly Cloudy,330,2013-09-16 17:35:00
1:55 PM,69.3,52.3,55,30.23,10.0,NNW,11.5,-,N/A,,Mostly Cloudy,330,2013-09-16 17:55:00
2:15 PM,68.7,52.7,57,30.23,10.0,NW,9.2,-,N/A,,Overcast,310,2013-09-16 18:15:00
2:35 PM,68.0,52.3,57,30.23,10.0,WNW,4.6,-,N/A,Rain,Light Rain,300,2013-09-16 18:35:00
2:55 PM,68.0,51.3,55,30.23,10.0,WNW,8.1,-,N/A,,Mostly Cloudy,300,2013-09-16 18:55:00
3:15 PM,68.7,51.8,55,30.22,10.0,WNW,8.1,16.1,N/A,,Scattered Clouds,290,2013-09-16 19:15:00
3:35 PM,68.5,51.4,54,30.21,10.0,West,8.1,-,N/A,,Mostly Cloudy,270,2013-09-16 19:35:00
3:55 PM,68.5,51.4,54,30.21,10.0,West,6.9,-,N/A,,Overcast,280,2013-09-16 19:55:00
4:15 PM,69.1,50.9,52,30.21,10.0,WNW,5.8,-,N/A,,Mostly Cloudy,290,2013-09-16 20:15:00
4:35 PM,68.5,50.7,53,30.21,10.0,NW,3.5,-,N/A,,Mostly Cloudy,310,2013-09-16 20:35:00
4:55 PM,68.0,51.4,55,30.21,10.0,NW,5.8,-,N/A,,Overcast,320,2013-09-16 20:55:00
5:15 PM,66.7,52.0,59,30.22,10.0,NW,6.9,-,N/A,,Mostly Cloudy,320,2013-09-16 21:15:00
5:35 PM,66.4,51.6,59,30.21,10.0,NW,8.1,16.1,N/A,,Overcast,320,2013-09-16 21:35:00
5:55 PM,65.5,51.8,61,30.22,10.0,NW,6.9,-,N/A,,Overcast,320,2013-09-16 21:55:00
6:15 PM,65.3,53.1,65,30.22,10.0,NW,8.1,-,N/A,,Overcast,310,2013-09-16 22:15:00
6:35 PM,64.8,52.9,65,30.23,10.0,NW,8.1,-,N/A,,Overcast,310,2013-09-16 22:35:00
6:55 PM,63.9,53.1,68,30.23,10.0,NW,4.6,-,N/A,,Overcast,320,2013-09-16 22:55:00
7:15 PM,63.5,53.2,69,30.24,10.0,NNW,3.5,-,N/A,,Overcast,340,2013-09-16 23:15:00
7:35 PM,62.2,53.6,73,30.24,10.0,NNW,3.5,-,N/A,,Scattered Clouds,340,2013-09-16 23:35:00
7:55 PM,61.9,54.1,76,30.24,10.0,North,4.6,-,N/A,,Mostly Cloudy,350,2013-09-16 23:55:00
8:15 PM,62.1,54.0,75,30.24,10.0,NNW,5.8,-,N/A,,Overcast,340,2013-09-17 00:15:00
8:35 PM,61.3,53.6,76,30.26,10.0,North,3.5,-,N/A,,Overcast,10,2013-09-17 00:35:00
8:55 PM,61.3,52.7,73,30.26,10.0,NNW,4.6,-,N/A,,Overcast,340,2013-09-17 00:55:00
9:15 PM,61.0,51.8,72,30.27,10.0,North,6.9,-,N/A,,Overcast,350,2013-09-17 01:15:00
9:35 PM,59.9,51.8,75,30.27,10.0,North,3.5,-,N/A,,Mostly Cloudy,360,2013-09-17 01:35:00
9:55 PM,58.8,51.8,77,30.27,10.0,Calm,Calm,-,N/A,,Mostly Cloudy,0,2013-09-17 01:55:00
10:15 PM,57.9,51.8,80,30.28,10.0,NNE,3.5,-,N/A,,Scattered Clouds,20,2013-09-17 02:15:00
10:35 PM,57.9,52.0,81,30.29,10.0,Calm,Calm,-,N/A,,Scattered Clouds,0,2013-09-17 02:35:00
10:55 PM,57.7,51.4,79,30.29,10.0,Calm,Calm,-,N/A,,Mostly Cloudy,0,2013-09-17 02:55:00
11:15 PM,57.9,51.3,78,30.29,10.0,NNE,3.5,-,N/A,,Mostly Cloudy,30,2013-09-17 03:15:00
11:35 PM,57.4,51.6,81,30.30,10.0,NE,4.6,-,N/A,,Overcast,40,2013-09-17 03:35:00
11:55 PM,56.3,52.3,87,30.30,10.0,ENE,5.8,-,N/A,,Mostly Cloudy,60,2013-09-17 03:55:00